Flag for Germany Weather past 2 weeks in Neuwied, Rhineland-Palatinate, Germany

Now
57 °F

Partly sunny.


Feels Like: 55 °F
Forecast: 50 / 69 °F
Wind: 12 mph from West

Location: Buechel

Current Time: Jul 29, 2015 at 12:31:28 PM

Latest Report: Jul 29, 2015 at 11:20 AM


Visibility: N/A

Pressure: 29.80 "Hg

Humidity: 51%

Dew point: 39 °F

Location of NeuwiedLocation

Historic Weather in Neuwied — Graph

°F

Neuwied temperature yesterday

Maximum temperature yesterday: 63 °F (at 3:20 PM)
Minimum temperature yesterday: 52 °F (at 4:20 AM)
Average temperature yesterday: 56 °F

Past Weeks' High & Low Weather Summary

 TemperatureHumidityPressure
High88 °F (Jul 17, 2:20 PM)100% (Jul 15, 1:20 AM)30.15 "Hg (Jul 15, 1:20 AM)
Low46 °F (Jul 26, 2:20 AM)21% (Jul 17, 2:20 PM)29.62 "Hg (Jul 27, 4:20 AM)
Average65 °F72%29.95 "Hg
* Reported Jul 14 11:20 AM — Jul 29 11:20 AM, Neuwied, Weather by CustomWeather, © 2015

Note: Actual official high and low records may vary slightly from our data, if they occured in-between our weather recording intervals... More about our weather records

Advertising

Neuwied weather history for previous 24 hours

 ConditionsComfort  
Time TempWeatherWind HumidityBarometerVisibility
11:20 AM
Wed, Jul 29
57 °FPartly sunny.12 mph51%29.80 "HgN/A
10:20 AM55 °FPartly sunny.9 mph67%29.83 "HgN/A
9:20 AM54 °FPartly sunny.13 mph72%29.83 "HgN/A
8:20 AM52 °FScattered clouds.8 mph82%29.83 "HgN/A
7:20 AM50 °FScattered clouds.9 mph88%29.83 "HgN/A
6:20 AM50 °FCool.9 mph88%29.83 "HgN/A
5:20 AM50 °FCool.9 mph94%29.83 "HgN/A
4:20 AM52 °FCool.9 mph82%29.83 "Hg4 mi
3:20 AM52 °FCool.9 mph82%29.83 "Hg4 mi
2:20 AM52 °FCool.9 mph77%29.83 "HgN/A
1:20 AM52 °FCool.10 mph77%29.83 "HgN/A
12:20 AM54 °FCool.9 mph72%29.83 "HgN/A
11:20 PM
Tue, Jul 28
55 °FCool.12 mph67%29.86 "HgN/A
10:20 PM54 °FCool.7 mph72%29.83 "Hg5 mi
9:20 PM57 °FRefreshingly cool.7 mph59%29.83 "HgN/A
8:20 PM57 °FRefreshingly cool.13 mph55%29.83 "HgN/A
7:20 PM59 °FRefreshingly cool.13 mph48%29.80 "HgN/A
6:20 PM59 °FRefreshingly cool.13 mph48%29.80 "HgN/A
5:20 PM59 °FRefreshingly cool.15 mph51%29.80 "HgN/A
4:20 PM59 °FMostly cloudy.15 mph51%29.80 "HgN/A
3:20 PM63 °FPartly sunny.13 mph45%29.80 "HgN/A
2:20 PM59 °FBroken clouds.15 mph51%29.80 "HgN/A
1:20 PM59 °FBroken clouds.15 mph51%29.80 "HgN/A
12:20 PM57 °FBroken clouds.15 mph59%29.80 "HgN/A
Weather by CustomWeather, © 2015

See weather overviewHow to use our weather pages